Regional Weather Roundup
Issued by NWS

Home | Current Version | Previous Version | Graphics & Text | Print | Product List | Glossary On
Versions: 1 2 3 4 5 6 7 8 9 10 11 12 13 14 15 16 17 18 19 20 21 22 23 24 25 26 27 28 29 30 31 32 33 34 35 36 37 38 39 40 41 42 43 44 45 46 47 48 49 50
000
ASUS43 KLOT 011521
RWRIL

ILLINOIS REGIONAL WEATHER ROUNDUP
NATIONAL WEATHER SERVICE CHICAGO/ROMEOVILLE IL
1000 AM CDT SAT AUG 01 2015

NOTE: "FAIR" INDICATES FEW OR NO CLOUDS BELOW 12,000 FEET WITH NO
SIGNIFICANT WEATHER AND/OR OBSTRUCTIONS TO VISIBILITY.

* THESE STATIONS ARE NOT UNDER NWS QUALITY CONTROL. THEY ALSO MAY NOT
  REPORT WEATHER SUCH AS PRECIPITATION OR FOG.

ILZ001-002-007-009-015-016-024-011600-
NORTHWEST ILLINOIS

CITY           SKY/WX    TMP DP  RH WIND       PRES   REMARKS
MOLINE         SUNNY     79  61  53 SW7       30.02S HX  80
STERLING*      SUNNY     79  64  61 SW9       29.99S HX  81
SAVANNA*       PTSUNNY   76  62  61 SW3       30.01S
$$

ILZ003-004-008-010-011-017-018-011600-
NORTH CENTRAL ILLINOIS

CITY           SKY/WX    TMP DP  RH WIND       PRES   REMARKS
ROCKFORD       MOSUNNY   76  61  59 CALM      30.01F
FREEPORT*      SUNNY     76  61  60 W7        30.02F
ROCHELLE*      SUNNY     75  62  62 W5        30.02S
DE KALB*       CLOUDY    74  61  64 NW6       30.02S
PERU*          SUNNY     76  61  57 W5        30.02S
$$

ILZ005-006-012>014-019>023-011600-
NORTHEAST ILLINOIS

CITY           SKY/WX    TMP DP  RH WIND       PRES   REMARKS
CHICAGO-OHARE  MOSUNNY   78  57  48 NW12      29.98F
CHICAGO-MIDWAY MOSUNNY   81  55  40 W8        29.98F HX  81
AURORA         MOSUNNY   77  62  59 W6        30.00F
LANSING*       SUNNY     79  53  39 NW6       29.99F
JOLIET*        SUNNY     78  62  57 NW3       30.00S HX  80
WAUKEGAN       MOSUNNY   76  59  55 VRB5      29.97F
DUPAGE AIRPORT MOSUNNY   77  58  51 W8        29.99F
KANKAKEE*      SUNNY     77  62  60 CALM      30.02S
WHEELING       MOSUNNY   80  56  43 NW9       29.99F HX  80
MORRIS*        SUNNY     77  61  59 NW6       30.00S
ROMEOVILLE*    MOSUNNY   77  59  53 W7        30.00F
NORTHERLY ISL    N/A     79  53  40 NW7         N/A
$$

LMZ740>746-011600-
SOUTHERN LAKE MICHIGAN

STATION/POSITION SKY/WX   TEMP    WIND        PRES    VSBY  WAVE
                          AIR SEA DIR/SP/G                  HT/PER
                          (F)     (DEG/KT/KT) (MB)    (MI)  (FT/S)
HARRISON CRIB              77     290/ 11/ 12   N/A
BURNHAM HARBOR             80     280/  7/  8   N/A
CALUMET HARBOR             80     240/  5/  6   N/A
BURNS HARBOR               74     270/  9/ 11 1016.3S
MICHIGAN CITY              72     230/ 10/ 11   N/A
MICHIGAN CITY 6N           72 73  270/  8/ 10   N/A           3/ 4
ST. JOSEPH                 72 74  310/ 10/ 12   N/A           2/ 4
$$

ILZ025>027-034>036-040-047-049-050-058-095>099-011600-
WEST-CENTRAL ILLINOIS

CITY           SKY/WX    TMP DP  RH WIND       PRES   REMARKS
QUINCY         SUNNY     79  60  52 S7        30.06F HX  80
GALESBURG*     SUNNY     78  64  61 S5        30.05R HX  80
MACOMB*        SUNNY     80  62  53 S3        30.07S HX  81
JACKSONVILLE*  SUNNY     80  61  51 CALM      30.07S HX  81
PITTSFIELD*    SUNNY     80  61  52 SE5       30.08S HX  81
$$

ILZ028>032-037-038-041>044-048-051>054-059>061-011600-
CENTRAL ILLINOIS

CITY           SKY/WX    TMP DP  RH WIND       PRES   REMARKS
PONTIAC        SUNNY     76  67  71 W5        30.03S
BLOOMINGTON    SUNNY     80  57  45 W3        30.06S HX  80
DECATUR        SUNNY     81  56  42 VRB5      30.05S HX  81
PEORIA         SUNNY     81  60  48 W3        30.04F HX  82
LACON*         SUNNY     76  63  64 SW6       30.02S
LINCOLN*       SUNNY     82  59  44 CALM      30.04F HX  82
SPRINGFIELD    SUNNY     82  59  45 W3        30.06S HX  82
TAYLORVILLE    SUNNY     79  59  50 CALM      30.06S HX  80
$$

ILZ033-039-045-046-055>057-062-063-011600-
EAST-CENTRAL ILLINOIS

CITY           SKY/WX    TMP DP  RH WIND       PRES   REMARKS
CHAMPAIGN      SUNNY     78  61  55 VRB3      30.05S HX  80
DANVILLE*      SUNNY     76  60  57 CALM      30.01S
RANTOUL*       SUNNY     79  64  58 NW5       30.04S HX  81
MATTOON        SUNNY     79  55  43 N3        30.06R
PARIS*         SUNNY     78  59  52 CALM      30.05S
$$

ILZ079-100>102-011600-
SOUTHWEST ILLINOIS

CITY           SKY/WX    TMP DP  RH WIND       PRES   REMARKS
ALTON          MOSUNNY   77  63  61 E6        30.08R
BELLEVILLE     MOSUNNY   79  65  62 NE2       30.06S HX  80
CAHOKIA*       MOSUNNY   82  59  45 E5        30.07S HX  82
SPARTA*        SUNNY     80  63  56 E9        30.08R HX  82
$$

ILZ064>066-069>071-074>076-080>082-084>086-088>090-092>094-011600-
SOUTH-CENTRAL ILLINOIS

CITY           SKY/WX    TMP DP  RH WIND       PRES   REMARKS
CARBONDALE     SUNNY     81  65  58 E6        30.06S HX  83
CAIRO*         SUNNY     81  71  71 NE6       30.04F HX  85
EFFINGHAM*     SUNNY     80  53  39 CALM      30.07S HX  80
MARION         MOSUNNY   82  64  54 NE8       30.07S HX  84
MT. VERNON     SUNNY     82  61  47 E8        30.07S HX  83
CENTRALIA*     SUNNY     81  58  44 NE3       30.07S HX  81
SALEM*         SUNNY     81  58  46 NE3       30.07S HX  81
METROPOLIS*    SUNNY     82  73  74 N5        30.05S HX  86
$$

ILZ067-068-072-073-078-083-087-091-011600-
SOUTHEAST ILLINOIS

CITY           SKY/WX    TMP DP  RH WIND       PRES   REMARKS
LAWRENCEVILLE  SUNNY     80  58  46 N7        30.05F HX  80
FLORA*         SUNNY     81  59  47 N3        30.07R HX  81
FAIRFIELD*     SUNNY     80  63  56 NE5       30.05S HX  81
HARRISBURG*    SUNNY     81  64  55 NE5       30.06F HX  82
ROBINSON*      SUNNY     78  59  51 N6        30.06S
CARMI*         SUNNY     80  55  42 CALM      30.05S HX  80
$$

ABBREVIATIONS USED IN REMARKS
   TC - TEMPERATURE IN CELSIUS
  WCI - WIND CHILL INDEX
   HX - HEAT INDEX
  VSB - VISIBILITY
$$



USA.gov is the U.S. government's official web portal to all federal, state and local government web resources and services.